Regional Weather Roundup
Issued by NWS Kansas City/Pleasant Hill, MO

Home | Current Version | Previous Version | Graphics & Text | Print | Product List | Glossary Off
Versions: 1 2 3 4 5 6 7 8 9 10 11 12 13 14 15 16 17 18 19 20 21 22 23 24 25 26 27 28 29 30 31 32 33 34 35 36 37 38 39 40 41 42 43 44 45 46 47 48 49 50

000
ASUS43 KEAX 290410
RWREAX

WEATHER ROUNDUP FOR EASTERN KANSAS AND NORTHWEST MISSOURI
NATIONAL WEATHER SERVICE KANSAS CITY/PLEASANT HILL MO
1100 PM CDT SUN MAY 28 2017

KSZ040-057-103>105-MOZ028-029-037-043-290500-
...KANSAS CITY METROPOLITAN AREA...

CITY           SKY/WX    TMP DP  RH WIND       PRES   REMARKS
K.C. INTL      CLEAR     65  53  65 NW6       29.92R
K.C. DOWNTOWN  CLEAR     70  51  51 CALM      29.91R
LEES SUMMIT    CLEAR     67  52  58 SW7       29.92R
OLATHE - IXD   CLEAR     68  50  52 SW6       29.92S
OLATHE - OJC   CLEAR     65  53  65 SW3       29.92S
LAWRENCE       CLEAR     60  57  89 CALM      29.92R

$$

MOZ001>008-011>017-020>025-030>033-038>040-044>046-053-054-290500-
...NORTHERN AND CENTRAL MISSOURI...

CITY           SKY/WX    TMP DP  RH WIND       PRES   REMARKS
ST. JOSEPH     CLEAR     61  53  75 N5        29.91S
MOSBY          CLEAR     64  52  63 CALM      29.91R
WARRENSBURG    CLEAR     63  52  67 S5        29.91R
WHITEMAN AFB   CLEAR     62  57  84 SW7       29.90R
CLINTON        CLEAR     59  57  94 CALM      29.93S
SEDALIA        CLEAR     67  56  67 SW7       29.93R
WARSAW         NOT AVBL
CHILLICOTHE      N/A     70  48  45 VRB5      29.90R
KIRKSVILLE     MOCLDY    63  51  65 NW5       29.88R

$$

MOZ041-047>049-056>058-063>065-088>090-097-290500-
...EASTERN AND SOUTHERN MISSOURI...

CITY           SKY/WX    TMP DP  RH WIND       PRES   REMARKS
ST. LOUIS INTL PTCLDY    71  56  58 SW9       29.90R
SPIRIT OF STL  CLEAR     63  58  83 W6        29.89R
COLUMBIA       CLEAR     63  54  72 SW6       29.91R
JEFFERSON CITY CLEAR     66  58  75 E7        29.92R
ROLLA          CLEAR     60  56  86 S9        29.93R
OSAGE BEACH    CLEAR     59  58  96 CALM      29.94S
SPRINGFIELD    CLEAR     63  56  78 S6        29.97S
BRANSON        CLEAR     64  54  68 CALM      30.00S
JOPLIN         CLEAR     62  56  80 S7        29.98R
WEST PLAINS    CLEAR     59  55  87 CALM      29.98S

$$

IAZ060-094-KSZ022-034>040-054-083-096-NEZ052-066-093-290500-
...KANSAS...SOUTHEAST NEBRASKA AND IOWA...

CITY           SKY/WX    TMP DP  RH WIND       PRES   REMARKS
TOPEKA         CLEAR     66  55  67 W7        29.92R
MANHATTAN      PTCLDY    59  55  87 CALM      29.94S
EMPORIA        CLEAR     65  51  60 W6        29.94S
CHANUTE        CLEAR     61  51  70 W3        29.95S
WICHITA        CLEAR     63  50  62 NW3       29.98S
OMAHA          CLEAR     62  46  55 E3        29.89S
LINCOLN        CLEAR     63  45  51 CALM      29.93F
FALLS CITY     CLEAR     62  45  53 NW3       29.91S
LAMONI         CLEAR     60  46  59 W6        29.89S
DES MOINES     CLEAR     65  43  44 CALM      29.85S

$$




USA.gov is the U.S. government's official web portal to all federal, state and local government web resources and services.